Back to catalog

SL-8 DEB

AliveLEO
NORAD 18274·DEBRIS·🇷🇺 Russia

Launched Jul 16, 1986 from Plesetsk Cosmodrome

Loading…

Next Passes (next 24 hours)

TLE

FreshSource: Space-Track

Epoch: Sep 14, 2026, 13:27 UTC

1 18274U 86052F   26257.56059828  .00001474  00000-0  24095-3 0  9997
2 18274  74.0420 301.4119 0022606 180.6281 331.2424 14.71663184121321

Track SL-8 DEB in real time with AllMySat

Download on the App Store